TJS-7

导读 | 星芒AI

TJS-7(天基红外系统-7)是中国研制的一颗用于空间观测和红外探测的卫星,主要用于国土安全、气象监测和空间目标监视等领域。该卫星具备高分辨率成像和红外探测能力,能够全天候、全天时获取地表和大气数据。TJS-7的发射提升了中国在遥感和空间监视方面的能力,对国防和民用领域均有重要意义。

基本信息
目录编号:
49115
目录名称:
TJS-7
国际标识:
2021-077A
轨道中心:
EARTH
卫星名称:
TJS-7
卫星全名:
--
卫星状态:
在轨 (已飞行1530 天)
发射日期:
2021-08-24 UTC
国别 :
中国 (CN)
星等 :
--
轨道信息
数据来源 国际轨道数据 AOE轨道数据
星历时间 2025-10-31T22:12:32+0800
13小时前
查看轨道信息
2025-10-31T12:00:00+0800
23小时前
查看轨道信息
半长轴 42165.009km 42164.953km
偏心率 0.0000865 0.0000811
轨道倾角 0.089° 0.090°
近地点辐角 255.636° 260.246°
升交点赤经 265.300° 265.114°
平近点角 352.902° 194.925°
近地点 35783.226km 35783.398km
远地点 35790.522km 35790.238km
周期 1436.111分钟 1436.108分钟
每日圈数 1.002708 1.00271
详细信息
使用方式:
暂无
2D轨道图
3D轨道图
轨道高度分析图
轨道倾角分析图
轨道综合分析图
查看轨道综合分析图